Location: Poughquag
(41.6090°N, 73.6820°W)
Time: 11:36:33
(UTC-04:00)

Vanguard 1 Rocket - Pass Details

Date: 30 May 2020
Orbit: 653 x 4224 km, 34.3° (Epoch: 06 July)

Event Time Altitude Azimuth Distance (km) Brightness Sun altitude
Rises 21:55:56 0° 198° (SSW) 8,455 12.0 -14.4°
Reaches altitude 10° 22:04:08 10° 186° (S) 7,340 11.6 -15.4°
Maximum altitude 22:20:36 23° 144° (SE) 5,452 10.7 -17.4°
Drops below altitude 10° 22:32:46 10° 99° (E) 5,424 10.9 -18.7°
Sets 22:37:22 0° 86° (E) 5,910 11.3 -19.1°
